LiveATC.Net - Listen to live air traffic control over the Internet!


ICAO: KMMV  IATA: MMV   Airport: Mc Minnville Municipal Airport
City: Mc Minnville   State/Province: Oregon
Country: United States   Continent: North America
KMMV METAR Weather: KMMV 210053Z AUTO 02008KT 10SM CLR 26/05 A3007 RMK AO2 SLP182 T02610050
KMMV Flight Activity (FlightAware)
KMMV Airport Info   (AirNav) (iFlightPlanner)
KMMV VFR Sectional Chart   (iFlightPlanner) 
KMMV IFR Low Chart   (iFlightPlanner) 

KMMV CTAF
Feed Status: UP   Listeners: 0
Listen right in your browser - requires Flash (in browser, requires Flash)
Click here to listen with your own player (launches your MP3 player)
KMMV CTAF Audio Archives
FacilityFrequency
Mc Minnville CTAF123.000

NOTICE

Unauthorized use prohibited. See LiveATC.net Terms of Service


Find LiveATC Audio Streams


Airport/ARTCC Code

Frequency Search
(e.g., 124.400, 128.75)
Site-wide search
 


Browse LiveATC Feeds
Top 50 LiveATC Feeds
Bad Weather Areas

LiveATC FAQ
Offer a LiveATC Feed
Contact LiveATC.net
Press Inquiries

LiveATC on iPhone
LiveATC on Android

Windows Phone
Windows 8/10

LiveATC Mobile
(Mobile browser)

ATC Audio Archives
Interesting Recordings

LiveATC Forums


Home Page
About LiveATC.net
Make a Donation
Terms of Use
Privacy Policy

Canadian Air Freqs

AIRMETs/SIGMETs

FAA Airport Status
Nat'l Airspace Status
Arrival Demand Charts


Server Software By:
Icecast.org
Liquidsoap